Change the Weather History Date:

Thursday, October 17, 2013

  Actual Average Record
Temperature  
Mean Temperature 74 °F -  
Max Temperature 83 °F 79 °F 88 °F (1985)
Min Temperature 65 °F 54 °F 36 °F (1977)
Cooling Degree Days 8    
Growing Degree Days 24 (Base 50)    
Moisture  
Dew Point 70 °F    
Average Humidity 87    
Maximum Humidity 100    
Minimum Humidity 64    
Precipitation  
Precipitation 0.05 in - - ()
Sea Level Pressure  
Sea Level Pressure 29.95 in    
Wind  
Wind Speed 4 mph (NW)    
Max Wind Speed 12 mph    
Max Gust Speed -    
Visibility 10 miles    
Events Rain    
Averages and records for this station are not official NWS values.
T = Trace of Precipitation, MM = Missing Value Source: NWS Daily Summary

Daily Weather History Graph

Daily Weather History Graph

Search for Another Location

Airport or City:

Trip Planner

Search our weather history database for the weather conditions in past years. The results will help you decide how hot, cold, wet, or windy it might be!

Date:

Astronomy

Oct. 17, 2013 Rise Set
Actual Time 6:49 AM CDT 6:12 PM CDT
Civil Twilight 6:25 AM CDT 6:36 PM CDT
Nautical Twilight 5:57 AM CDT 7:04 PM CDT
Astronomical Twilight 5:29 AM CDT 7:32 PM CDT
Moon 5:23 PM CDT (10/17) 5:25 AM CDT (10/17)
Length of Visible Light 12h 11m
Length of Day
11h 22m
Waxing Gibbous, 98% of the Moon is Illuminated
Oct 17
Waxing Gibbous
Oct 18
Full
Oct 26
Last Quarter
Nov 3
New
Nov 9
First Quarter

Hourly Weather History & Observations

Time (CDT) Temp. Heat Index Dew Point Humidity Pressure Visibility Wind Dir Wind Speed Gust Speed Precip Events Conditions
12:55 AM 67.3 °F - 64.9 °F 92% 29.97 in 10.0 mi Calm Calm - N/A   Clear
1:55 AM 66.6 °F - 64.2 °F 92% 29.96 in 10.0 mi NNW 1.2 mph - N/A   Clear
2:55 AM 65.7 °F - 63.9 °F 94% 29.94 in 10.0 mi North 1.2 mph - N/A   Clear
3:55 AM 66.4 °F - 64.4 °F 93% 29.94 in 10.0 mi North 2.3 mph - N/A   Partly Cloudy
4:55 AM 65.8 °F - 64.0 °F 94% 29.95 in 10.0 mi NNE 1.2 mph - N/A   Partly Cloudy
5:55 AM 67.6 °F - 64.6 °F 90% 29.96 in 10.0 mi North 1.2 mph - N/A   Partly Cloudy
6:55 AM 65.7 °F - 64.2 °F 95% 29.96 in 10.0 mi North 2.3 mph - N/A   Scattered Clouds
7:55 AM 69.6 °F - 66.2 °F 89% 29.99 in 10.0 mi NNE 2.3 mph - N/A   Scattered Clouds
8:55 AM 76.6 °F - 69.1 °F 77% 29.99 in 10.0 mi Calm Calm - N/A   Mostly Cloudy
9:55 AM 79.9 °F - 70.2 °F 72% 29.99 in 10.0 mi SSW 8.1 mph - N/A   Mostly Cloudy
10:55 AM 82.0 °F 85.3 °F 68.9 °F 64% 29.99 in 10.0 mi South 11.5 mph - N/A   Mostly Cloudy
11:55 AM 81.9 °F 85.2 °F 69.3 °F 65% 29.99 in 10.0 mi South 10.4 mph - N/A   Mostly Cloudy
12:55 PM 81.5 °F 85.5 °F 70.7 °F 70% 29.96 in 10.0 mi South 11.5 mph - N/A   Mostly Cloudy
1:55 PM 82.9 °F 87.7 °F 71.2 °F 68% 29.93 in 10.0 mi SSW 11.5 mph - N/A   Mostly Cloudy
2:55 PM 81.9 °F 86.4 °F 71.8 °F 71% 29.92 in 10.0 mi South 11.5 mph - N/A   Mostly Cloudy
3:56 PM 79.7 °F - 72.3 °F 78% 29.91 in 10.0 mi South 8.1 mph - N/A   Overcast
4:32 PM 78.8 °F - 73.4 °F 83% 29.90 in 7.0 mi SSW 8.1 mph - N/A Rain Light Rain
4:55 PM 76.8 °F - 74.1 °F 91% 29.92 in 7.0 mi SSW 4.6 mph - 0.05 in Rain Light Rain
5:05 PM 77.0 °F - 75.2 °F 94% 29.90 in 10.0 mi NW 1.2 mph - N/A   Mostly Cloudy
5:55 PM 77.0 °F - 74.3 °F 91% 29.92 in 10.0 mi SSW 5.8 mph - 0.00 in   Mostly Cloudy
6:17 PM 75.2 °F - 73.4 °F 94% 29.91 in 7.0 mi NW 3.5 mph - N/A Rain Light Rain
6:36 PM 75.2 °F - 73.4 °F 94% 29.92 in 10.0 mi NNW 1.2 mph - N/A   Overcast
6:55 PM 74.8 °F - 73.4 °F 95% 29.94 in 10.0 mi NNW 2.3 mph - 0.00 in   Mostly Cloudy
7:55 PM 74.7 °F - 73.2 °F 95% 29.94 in 10.0 mi NW 2.3 mph - N/A   Overcast
8:55 PM 74.3 °F - 72.9 °F 95% 29.96 in 10.0 mi NW 3.5 mph - N/A   Overcast
9:55 PM 74.1 °F - 72.9 °F 96% 29.96 in 10.0 mi North 6.9 mph - N/A   Overcast
10:13 PM 73.4 °F - 73.4 °F 100% 29.94 in 10.0 mi North 6.9 mph - N/A   Overcast
10:41 PM 73.4 °F - 71.6 °F 94% 29.94 in 10.0 mi Variable 6.9 mph - N/A   Overcast
10:55 PM 73.0 °F - 71.6 °F 95% 29.96 in 7.0 mi North 6.9 mph - N/A   Overcast
11:26 PM 71.6 °F - 69.8 °F 94% 29.94 in 7.0 mi North 6.9 mph - N/A   Overcast
11:55 PM 70.5 °F - 68.7 °F 94% 29.95 in 10.0 mi North 8.1 mph - N/A   Overcast